Location: Saint-Saturnin-sur-Loire
(47.3950°N, 0.4368°W)
Time: 20:40:05
(UTC+02:00)

ISS - Visible Passes

Search period start: 22 July 2018 00:00
Search period end: 01 August 2018 00:00
Orbit: 402 x 408 km, 51.6° (Epoch: 22 July)

Date Brightness Start Highest point End Pass type
(mag) Time Alt. Az. Time Alt. Az. Time Alt. Az.
22 Jul -2.9 00:29:19 10° W 00:32:32 50° NNW 00:35:45 10° ENE visible
22 Jul -2.4 02:06:18 10° WNW 02:09:25 38° N 02:12:33 10° ENE visible
22 Jul -3.9 03:42:51 10° WNW 03:46:09 89° NNE 03:49:27 10° ESE visible
22 Jul -2.3 05:20:00 10° W 05:22:17 18° SW 05:24:34 10° S visible
22 Jul -3.5 23:37:05 10° WSW 23:40:21 67° NNW 23:43:38 10° ENE visible
23 Jul -2.3 01:14:04 10° WNW 01:17:10 37° N 01:20:16 10° ENE visible
23 Jul -3.0 02:50:44 10° WNW 02:53:21 48° NW 02:53:21 48° NW visible
23 Jul -3.9 22:44:56 10° WSW 22:48:12 83° SSE 22:51:31 10° ENE visible
24 Jul -2.4 00:21:47 10° WNW 00:24:55 39° N 00:28:03 10° ENE visible
24 Jul -2.8 01:58:36 10° WNW 02:01:45 47° N 02:01:45 47° N visible
24 Jul -2.7 23:29:29 10° W 23:32:39 46° NNW 23:35:51 10° ENE visible
25 Jul -2.5 01:06:25 10° WNW 01:09:33 40° N 01:10:47 27° ENE visible
25 Jul -1.2 02:42:57 10° WNW 02:43:24 13° WNW 02:43:24 13° WNW visible
25 Jul -3.2 22:37:11 10° W 22:40:26 59° NNW 22:43:41 10° ENE visible
26 Jul -2.3 00:14:11 10° WNW 00:17:16 37° N 00:20:01 12° ENE visible
26 Jul -2.2 01:50:47 10° WNW 01:52:38 30° WNW 01:52:38 30° WNW visible
26 Jul -2.4 23:21:52 10° WNW 23:24:59 38° N 23:28:05 10° ENE visible
27 Jul -3.1 00:58:37 10° WNW 01:01:51 51° NNE 01:01:57 51° NNE visible
27 Jul -2.6 22:29:32 10° W 22:32:41 43° N 22:35:51 10° ENE visible
28 Jul -2.7 00:06:25 10° WNW 00:09:34 42° N 00:11:19 22° ENE visible
28 Jul -1.5 01:42:56 10° WNW 01:43:57 18° WNW 01:43:57 18° WNW visible
28 Jul -2.4 23:14:10 10° WNW 23:17:15 38° N 23:20:22 10° ENE visible
29 Jul -3.2 00:50:44 10° WNW 00:53:21 53° NW 00:53:21 53° NW visible
29 Jul -2.4 22:21:50 10° WNW 22:24:56 37° N 22:28:02 10° ENE visible
29 Jul -3.3 23:58:32 10° WNW 00:01:47 57° NNE 00:02:47 37° ENE visible
30 Jul -1.0 01:35:10 10° WNW 01:35:25 12° W 01:35:25 12° W visible
30 Jul -2.8 23:06:19 10° WNW 23:09:29 44° NNE 23:12:14 13° E visible
31 Jul -2.5 00:42:50 10° WNW 00:44:52 33° W 00:44:52 33° W visible
31 Jul -2.6 22:14:01 10° WNW 22:17:08 39° N 22:20:15 10° ENE visible
31 Jul -3.9 23:50:34 10° WNW 23:53:51 87° SSW 23:54:20 62° ESE visible
